Weather History for Kinston, NC

Change the Weather History Date:

Thursday, October 25, 2012

  Actual Average Record
Temperature  
Mean Temperature 66 °F -  
Max Temperature 80 °F 70 °F 83 °F (1984)
Min Temperature 53 °F 48 °F 30 °F (1978)
Cooling Degree Days 2    
Growing Degree Days 16 (Base 50)    
Moisture  
Dew Point 56 °F    
Average Humidity 89    
Maximum Humidity 100    
Minimum Humidity 45    
Precipitation  
Precipitation 0.00 in - - ()
Sea Level Pressure  
Sea Level Pressure 30.14 in    
Wind  
Wind Speed 1 mph (ENE)    
Max Wind Speed 6 mph    
Max Gust Speed -    
Visibility 5 miles    
Events Fog    
Averages and records for this station are not official NWS values.
T = Trace of Precipitation, MM = Missing Value Source: NWS Daily Summary

Daily Weather History Graph

Daily Weather History Graph

Search for Another Location

Airport:

Trip Planner

Search our weather history database for the weather conditions in past years. The results will help you decide how hot, cold, wet, or windy it might be!

Date:

Astronomy

Oct. 25, 2012 Rise Set
Actual Time 7:25 AM EDT 6:22 PM EDT
Civil Twilight 6:59 AM EDT 6:48 PM EDT
Nautical Twilight 6:30 AM EDT 7:18 PM EDT
Astronomical Twilight 6:00 AM EDT 7:47 PM EDT
Moon 4:01 PM EDT 3:28 AM EDT
Length of Visible Light 11h 48m
Length of Day
10h 56m
Waxing Gibbous, 84% of the Moon is Illuminated
Oct 25
Waxing Gibbous
Oct 29
Full
Nov 6
Last Quarter
Nov 13
New
Nov 20
First Quarter

Hourly Weather History & Observations

Time (EDT) Temp. Heat Index Dew Point Humidity Pressure Visibility Wind Dir Wind Speed Gust Speed Precip Events Conditions
12:15 AM 59.0 °F - 55.4 °F 88% 30.15 in 5.0 mi Calm Calm - N/A   Clear
12:35 AM 55.4 °F - 53.6 °F 94% 30.15 in 3.0 mi Calm Calm - N/A   Mist
12:55 AM 55.4 °F - 53.6 °F 94% 30.15 in 5.0 mi Calm Calm - N/A   Scattered Clouds
1:15 AM 55.4 °F - 53.6 °F 94% 30.15 in 0.2 mi Calm Calm - N/A Fog Fog
1:35 AM 55.4 °F - 55.4 °F 100% 30.15 in 0.5 mi Calm Calm - N/A Fog Fog
1:55 AM 53.6 °F - 53.6 °F 100% 30.15 in 0.2 mi Calm Calm - N/A Fog Fog
2:15 AM 53.6 °F - 51.8 °F 94% 30.14 in 0.5 mi Calm Calm - N/A Fog Fog
2:35 AM 53.6 °F - 53.6 °F 100% 30.14 in 0.8 mi Calm Calm - N/A   Overcast
2:55 AM 53.6 °F - 53.6 °F 100% 30.14 in 0.2 mi Calm Calm - N/A Fog Fog
3:35 AM 53.6 °F - 53.6 °F 100% 30.13 in 0.2 mi Calm Calm - N/A Fog Fog
3:55 AM 53.6 °F - 53.6 °F 100% 30.13 in 0.2 mi Calm Calm - N/A Fog Fog
4:15 AM 53.6 °F - 53.6 °F 100% 30.13 in 0.2 mi Calm Calm - N/A Fog Fog
4:35 AM 53.6 °F - 53.6 °F 100% 30.13 in 0.2 mi Calm Calm - N/A Fog Fog
4:55 AM 53.6 °F - 53.6 °F 100% 30.14 in 0.2 mi Calm Calm - N/A Fog Fog
5:15 AM 53.6 °F - 53.6 °F 100% 30.14 in 0.2 mi Calm Calm - N/A Fog Fog
5:35 AM 53.6 °F - 53.6 °F 100% 30.14 in 0.2 mi Calm Calm - N/A Fog Fog
5:55 AM 53.6 °F - 53.6 °F 100% 30.14 in 0.5 mi Calm Calm - N/A Fog Fog
6:15 AM 53.6 °F - 53.6 °F 100% 30.14 in 0.8 mi Calm Calm - N/A   Overcast
6:31 AM 53.6 °F - 53.6 °F 100% 30.14 in 0.1 mi Calm Calm - N/A Fog Fog
6:35 AM 53.6 °F - 51.8 °F 94% 30.14 in 0.2 mi Calm Calm - N/A Fog Fog
6:55 AM 53.6 °F - 53.6 °F 100% 30.15 in 0.2 mi Calm Calm - N/A Fog Fog
6:56 AM 53.6 °F - 53.6 °F 100% 30.15 in 0.1 mi Calm Calm - N/A Fog Fog
7:56 AM 53.6 °F - 53.6 °F 100% 30.16 in 0.1 mi Calm Calm - N/A Fog Fog
9:56 AM 62.6 °F - 62.6 °F 100% 30.18 in 5.0 mi Calm Calm - N/A   Clear
10:56 AM 69.8 °F - 68.0 °F 94% 30.19 in 10.0 mi ENE 3.5 mph - N/A   Clear
11:56 AM 77.0 °F - 62.6 °F 61% 30.17 in 10.0 mi East 4.6 mph - N/A   Clear
2:56 PM 80.6 °F 80.8 °F 57.2 °F 45% 30.12 in 10.0 mi East 5.8 mph - N/A   Scattered Clouds
3:56 PM 80.6 °F 80.8 °F 57.2 °F 45% 30.11 in 10.0 mi NNE 3.5 mph - N/A   Partly Cloudy
4:56 PM 80.6 °F 80.8 °F 57.2 °F 45% 30.11 in 10.0 mi ENE 5.8 mph - N/A   Partly Cloudy
5:56 PM 77.0 °F - 59.0 °F 54% 30.12 in 10.0 mi ENE 4.6 mph - N/A   Clear
6:56 PM 73.4 °F - 59.0 °F 61% 30.12 in 10.0 mi ENE 4.6 mph - N/A   Clear
7:56 PM 62.6 °F - 57.2 °F 82% 30.12 in 10.0 mi Calm Calm - N/A   Clear
8:56 PM 60.8 °F - 59.0 °F 94% 30.12 in 10.0 mi Calm Calm - N/A   Clear
9:15 PM 60.8 °F - 57.2 °F 88% 30.13 in 10.0 mi Calm Calm - N/A   Clear
9:35 PM 59.0 °F - 55.4 °F 88% 30.12 in 10.0 mi Calm Calm - N/A   Clear
9:55 PM 59.0 °F - 55.4 °F 88% 30.12 in 10.0 mi NNE 3.5 mph - N/A   Clear
10:15 PM 59.0 °F - 57.2 °F 94% 30.12 in 10.0 mi Calm Calm - N/A   Clear
10:35 PM 60.8 °F - 57.2 °F 88% 30.12 in 10.0 mi Calm Calm - N/A   Clear
10:55 PM 57.2 °F - 53.6 °F 88% 30.11 in 10.0 mi Calm Calm - N/A   Clear
11:15 PM 57.2 °F - 55.4 °F 94% 30.11 in 10.0 mi Calm Calm - N/A   Clear
11:35 PM 59.0 °F - 55.4 °F 88% 30.11 in 10.0 mi Calm Calm - N/A   Clear
11:55 PM 55.4 °F - 53.6 °F 94% 30.11 in 7.0 mi Calm Calm - N/A   Clear